weather.gov     
National Weather Service

Regional Weather Roundup
NWS Homepage
This page is being discontinued on March 12, 2014.
The same data is available at this site. Please update your bookmarks.
Thank you, and we apologize for the inconvenience.
Please send an email to SR-SRH.Webmaster@noaa.gov with any concerns.


Current Version
Previous Version:    01  02  03  04  05  06  07  08  09  10  11  12  13  14  15  16  17  18  19  20  21  22  23  24  25  26  
[Printable]
797
ASUS42 KTBW 220910
RWRFL
FLORIDA REGIONAL WEATHER ROUNDUP
NATIONAL WEATHER SERVICE TAMPA BAY RUSKIN FL
500 AM EDT WED OCT 22 2014

NOTE: "FAIR" INDICATES FEW OR NO CLOUDS BELOW 12,000 FEET WITH NO
SIGNIFICANT WEATHER AND/OR OBSTRUCTIONS TO VISIBILITY.


FLZ001>010-012>015-112-114-115-221000-
PANHANDLE FLORIDA

CITY           SKY/WX    TMP DP  RH WIND       PRES   REMARKS
PENSACOLA      CLEAR     62  53  72 N7        30.01R
PENSACOLA NAS  CLEAR     57  54  89 N5        30.01R
MILTON NAS     CLEAR     59  52  77 N5        30.01S
CRESTVIEW      CLEAR     48  47  96 CALM      30.03R
DUKE FIELD     FAIR      52  50  94 CALM      30.01S
VALPARAISO     CLEAR     57  53  84 N5        30.01R
MARY ESTHER    CLEAR     56  50  81 N8        30.00R
PANAMA CITY    FAIR      56  52  86 NW3       29.99R
TYNDALL AFB    CLEAR     58  55  89 N6        29.99R
APALACHICOLA   CLEAR     63  55  75 N7        29.97S

STATION/POSITION SKY/WX   TEMP    WIND        PRES    WAVE   SWELL
                          AIR SEA DIR/SP/G            HT/PER HT/PER
                          (F)     (DEG/KT/KT) (MB)    (FT/S) (FT/S)
30.1N   87.6W              74 78   20/ 12/ 14 1015.3R   1/ 3
29.2N   88.2W              76 79   40/ 16/ 17 1015.3F   2/ 4
28.8N   86.0W              77 81   30/ 14/ 17 1014.2F   1/ 3
PANAMA CITY BEAC           61 77   30/  6/  8 1015.6S
CAPE SAN BLAS    NOT AVBL
TOWER C                    73      20/ 17/ 18 1014.4S
28.5N   84.5W              76 81   30/  8/ 12 1014.2R   1/ 3

$$
FLZ011-016>038-118-127-128-134-139-239-221000-
NORTH FLORIDA

CITY           SKY/WX    TMP DP  RH WIND       PRES   REMARKS
MARIANNA       LGT RAIN  54  53  97 CALM      30.00R
TALLAHASSEE    CLEAR     53  48  83 CALM      29.98S
PERRY          CLEAR     54  54 100 CALM      29.98R
CROSS CITY       N/A     57  55  93 N5        29.95S
LAKE CITY      FAIR      55  54  94 N6        29.96S
GAINESVILLE    CLEAR     59  56  89 NW3       29.95S
MAYPORT NAS    CLEAR     65  57  75 NW5       29.94S
JACKSONVILLE   CLEAR     59  56  89 N10       29.95R
JAX NAS        CLEAR     67  55  65 NW9       29.95S
JAX CRAIG      CLEAR     63  56  78 N10       29.94S
JAX CECIL      FOG       54  54 100 CALM      29.95S VSB 1
FERNANDINA BEA FAIR      64  57  77 N6        29.94R
ST AUGUSTINE   CLEAR     65  60  84 NW5       29.95R

STATION/POSITION SKY/WX   TEMP    WIND        PRES    WAVE   SWELL
                          AIR SEA DIR/SP/G            HT/PER HT/PER
                          (F)     (DEG/KT/KT) (MB)    (FT/S) (FT/S)
SHELL POINT                62     360/  5/  7   N/A
KEATON BEACH               61      20/  4/  6 1014.8R
CEDAR KEY                  69      20/  7/  9 1014.3F
FERNANDINA                 64 75  360/  5/  6 1013.7R
30.7N   81.3W                 77                N/A     2/ 8
MAYPORT                    66 77  330/  6/  9   N/A
31.4N   80.9W              69 76  340/ 16/ 17 1013.4R   3/ 4   2/ 9
ST AUGUSTINE               66     320/  8/  9 1014.3R

$$
FLZ040-043>046-052-053-057-058-063-144-221000-
INTERIOR CENTRAL FLORIDA

CITY           SKY/WX    TMP DP  RH WIND       PRES   REMARKS
OCALA          CLEAR     59  55  88 CALM      29.95R
THE VILLAGES     N/A     63  63 100 NW6       29.86R FOG
LEESBURG       CLEAR     66  63  90 N6        29.95S
SANFORD        FOG       70  69  97 CALM      29.93S VSB 1/4
ORLANDO EXEC   MOCLDY    72  70  93 NW6       29.94R FOG
ORLANDO INTL   FOG       69  69 100 CALM      29.94R VSB 1
WINTER HAVEN   MOCLDY    69  68  96 N6        29.95R
LAKELAND       MOCLDY    64  64 100 N5        29.94R
BARTOW         FAIR      66  66 100 CALM      29.95R
OKEECHOBEE       N/A     64  64 100 MISG        N/A

$$
FLZ041-047-054-059-064-141-147-221000-
EAST CENTRAL FLORIDA

CITY           SKY/WX    TMP DP  RH WIND       PRES   REMARKS
DAYTONA BEACH  PTCLDY    66  65  96 CALM      29.93S FOG
DELAND         MOSUNNY   64  63  94 CALM      29.95R
JFK SPACE CTR  FOG       70  68  94 NW5       29.93R VSB 3/4
CAPE CANAVERAL CLOUDY    70  70 100 NW6       29.92R FOG
PATRICK AFB    MOCLDY    71  70  96 NW8       29.92S
MELBOURNE      MOCLDY    70  68  93 W5        29.92R
VERO BEACH     FOG       67  64  90 W5        29.92S VSB 1/2
FT PIERCE      CLOUDY    68  67  96 W3        29.92R FOG
STUART         CLOUDY    68  66  94 CALM      29.93R

STATION/POSITION SKY/WX   TEMP    WIND        PRES    WAVE   SWELL
                          AIR SEA DIR/SP/G            HT/PER HT/PER
                          (F)     (DEG/KT/KT) (MB)    (FT/S) (FT/S)
28.5N   80.2W              75 83  290/ 10/ 12 1013.1F
28.9N   78.5W              79 80  260/  8/ 10 1012.7R   3/ 8   2/ 8
TRIDENT PIER               71 80  270/  5/  7 1012.7R
28.4N   80.5W                 80                N/A     2/ 8
27.6N   80.2W                 80                N/A     2/12   2/12

$$
FLZ050-056-061-142-242-148-248-149-249-151-251-155-255-
160-260-221000-
WEST CENTRAL FLORIDA

CITY           SKY/WX    TMP DP  RH WIND       PRES   REMARKS
CRYSTAL RIVER  FAIR      59  59 100 CALM      29.95R
INVERNESS      FAIR      61  61 100 CALM      29.96R FOG
BROOKSVILLE      N/A     62  61  96 N3        29.95S
ZEPHYRHILLS      N/A     63  63 100 CALM      29.96R
CLEARWATER     MOCLDY    73  66  78 N10       29.94R
TAMPA INTL     MOCLDY    70  65  84 N3        29.94R
TAMPA EXEC     MOCLDY    68  64  88 CALM      29.95R FOG
PLANT CITY     MOCLDY    68 N/A N/A CALM      29.96R HAZE
MACDILL AFB    MOCLDY    68  68  99 NE6       29.94R
ST PETERSBURG  MOCLDY    74  68  81 N7        29.93R
SARASOTA       MOCLDY    70  67  90 NE8       29.92R
VENICE           N/A     72  72 100 MISG      29.93S

STATION/POSITION SKY/WX   TEMP    WIND        PRES    WAVE   SWELL
                          AIR SEA DIR/SP/G            HT/PER HT/PER
                          (F)     (DEG/KT/KT) (MB)    (FT/S) (FT/S)
CEDAR KEY                  69      20/  7/  9 1014.3F
28.5N   84.5W              76 81   30/  8/ 12 1014.2R   1/ 3
27.3N   84.3W                 82                N/A     2/ 4
CLEARWATER BEACH NOT AVBL
MIDDLE TAMPA BAY           74      40/ 12/ 15 1013.9R
VENICE                     74 81   90/  5/  5 1012.5S

$$
FLZ066-069-070-075>078-162-262-165-265-221000-
SOUTHWEST FLORIDA AND KEYS

CITY           SKY/WX    TMP DP  RH WIND       PRES   REMARKS
PUNTA GORDA    CLOUDY    71  70  96 CALM      29.94R
FT MYERS       CLOUDY    72  71  97 CALM      29.90S
SOUTHWEST INTL CLOUDY    70  69  97 CALM      29.91S
NAPLES         CLOUDY    73  71  93 CALM      29.91S
MARATHON       MOCLDY    75  75 100 CALM      29.90S
KEY WEST NAS   CLOUDY   N/A N/A N/A E6        29.90S
KEY WEST INTL  CLOUDY    77  76  96 E5        29.91R

STATION/POSITION SKY/WX   TEMP    WIND        PRES    WAVE   SWELL
                          AIR SEA DIR/SP/G            HT/PER HT/PER
                          (F)     (DEG/KT/KT) (MB)    (FT/S) (FT/S)
VENICE                     74 81   90/  5/  5 1012.5S
NAPLES                     73 83  110/  5/  6 1013.3R
26.0N   85.6W              80 82   50/ 14/ 16 1012.5S   3/ 5
DRY TORTUGAS               80      90/  8/  9 1012.2S
NW FL BAY                  78      60/  5/  6 1012.8F
SAND KEY                   80     120/ 10/ 12 1012.5R
SOMBRERO KEY               80     110/  8/  8 1013.1R
LONG KEY                   79 79   80/  4/  5 1013.2S
MOLASSES REEF              80 82  120/  7/  8 1012.4F

$$
FLZ067-068-071>074-168-172>174-221000-
SOUTHEAST FLORIDA

CITY           SKY/WX    TMP DP  RH WIND       PRES   REMARKS
W PALM BEACH   MOCLDY    70  70 100 CALM      29.91R
FT LAUDER-EXEC CLOUDY    73  69  87 CALM      29.91R
FT LAUDERDALE  CLOUDY    75  71  87 CALM      29.91R
POMPANO BEACH  CLOUDY    73  71  93 CALM      29.91S
PEMBROKE PINES CLOUDY    74  70  87 CALM      29.92S
OPA LOCKA      CLOUDY    74  71  91 CALM      29.92R
MIAMI          CLOUDY    75  71  87 CALM      29.92R
WEST KENDALL   CLOUDY    75  72  90 N5        29.92R
HOMESTEAD      CLOUDY    73  72  95 CALM      29.91R

STATION/POSITION SKY/WX   TEMP    WIND        PRES    WAVE   SWELL
                          AIR SEA DIR/SP/G            HT/PER HT/PER
                          (F)     (DEG/KT/KT) (MB)    (FT/S) (FT/S)
PORT EVERGLADES            75     320/  5/  6 1012.6
VIRGINIA KEY               78 80  340/  3/  3 1013.2R
LAKE WORTH                 73 82   CALM  /  1 1012.6R
FOWEY ROCKS                80 82  140/  4/  5 1012.8F
SETTLEMENT POINT           78     140/  4/  4 1013.4R

$$





U.S. Dept. of Commerce
NOAA National Weather Service
1325 East West Highway
Silver Spring, MD 20910
E-mail: w-nws.webmaster@noaa.gov
Page last modified: May 16, 2007
NATIONAL WEATHER SERVICE: for Safety, for Work, for Fun - FOR LIFE